Home > Weather > Nordhausen > Past weeks

Flag for Germany Weather for the Past 2 Weeks in Nordhausen, Thuringia, Germany

Now
43 °F

Clear.


Feels Like: 36 °F
Forecast: 38 / 64 °F
Wind: 12 mph from Northeast

Location: Erfurt-Bindersleben

Current Time: May 1, 2016 at 3:36:25 AM

Latest Report: May 1, 2016 at 2:50 AM


Visibility: 10 mi

Pressure: 30.07 "Hg

Humidity: 87%

Dew Point: 39 °F

Location of NordhausenLocation

Historic Weather in Nordhausen — Graph

°F

Nordhausen Temperature Yesterday

Maximum temperature yesterday: 61 °F (at 5:20 PM)
Minimum temperature yesterday: 39 °F (at 2:50 AM)
Average temperature yesterday: 50 °F

High & Low Weather Summary for the Past Weeks

 TemperatureHumidityPressure
High61 °F (Apr 21, 3:50 PM)100% (Apr 17, 2:50 AM)30.42 "Hg (Apr 17, 2:50 AM)
Low28 °F (Apr 24, 4:50 AM)41% (Apr 18, 5:20 PM)29.47 "Hg (Apr 26, 1:50 AM)
Average44 °F71%29.93 "Hg
* Reported Apr 16 1:50 AM — May 1 1:50 AM, Nordhausen, Weather by CustomWeather, © 2016

Note: Actual official high and low records may vary slightly from our data, if they occured in-between our weather recording intervals... More about our weather records

Advertising

Nordhausen Weather History for the Previous 24 Hours

Scroll right to see more
 ConditionsComfort  
Time TempWeatherWind HumidityBarometerVisibility
1:50 AM
Sun, May 1
43 °FClear.9 mph93%30.07 "Hg10 mi
1:20 AM45 °FClear.9 mph87%30.07 "Hg10 mi
12:50 AM45 °FClear.8 mph87%30.07 "Hg10 mi
12:20 AM45 °FPassing clouds.12 mph87%30.07 "HgN/A
11:50 PM
Sat, Apr 30
45 °FClear.9 mph87%30.07 "Hg10 mi
11:20 PM46 °FClear.13 mph82%30.07 "Hg10 mi
10:50 PM48 °FClear.13 mph76%30.07 "Hg10 mi
10:20 PM48 °FClear.13 mph76%30.04 "Hg10 mi
9:50 PM48 °FPartly cloudy.15 mph76%30.04 "HgN/A
9:20 PM50 °FBroken clouds.16 mph71%30.04 "HgN/A
8:50 PM52 °FBroken clouds.13 mph67%30.04 "HgN/A
8:20 PM52 °FPartly sunny.16 mph67%30.01 "HgN/A
7:50 PM55 °FPartly sunny.15 mph59%30.01 "HgN/A
7:20 PM57 °FScattered showers. Scattered clouds.9 mph55%30.01 "HgN/A
6:50 PM57 °FScattered clouds.9 mph55%30.01 "HgN/A
6:20 PM59 °FPartly sunny.10 mph51%30.01 "HgN/A
5:50 PM61 °FScattered clouds.7 mph45%30.01 "HgN/A
5:20 PM61 °FPassing clouds.8 mph45%30.01 "HgN/A
4:50 PM59 °FScattered clouds.6 mph51%30.01 "HgN/A
4:20 PM59 °FPartly sunny.5 mph48%30.01 "HgN/A
3:50 PM59 °FPartly sunny.5 mph48%30.01 "HgN/A
3:20 PM57 °FPartly sunny.8 mph48%30.01 "HgN/A
2:50 PM57 °FBroken clouds.8 mph48%30.01 "HgN/A
2:20 PM59 °FBroken clouds.7 mph45%30.01 "HgN/A
1:50 PM57 °FBroken clouds.6 mph44%30.01 "HgN/A
1:20 PM57 °FPartly sunny.7 mph48%30.01 "HgN/A
12:50 PM57 °FPassing clouds.7 mph48%30.01 "HgN/A
12:20 PM55 °FPassing clouds.6 mph55%30.01 "HgN/A
11:50 AM55 °FPassing clouds.3 mph59%30.04 "HgN/A
11:20 AM54 °FPassing clouds.3 mph63%30.04 "HgN/A
10:20 AM52 °FSunny.No wind54%30.04 "Hg10 mi
9:50 AM50 °FPassing clouds.6 mph58%30.04 "HgN/A
9:20 AM48 °FPassing clouds.5 mph62%30.04 "HgN/A
8:50 AM45 °FSunny.6 mph71%30.04 "Hg10 mi
8:20 AM43 °FSunny.8 mph71%30.04 "Hg10 mi
7:50 AM43 °FSunny.7 mph71%30.04 "Hg10 mi
7:20 AM41 °FSunny.7 mph76%30.04 "Hg10 mi
6:50 AM41 °FSunny.6 mph76%30.04 "Hg10 mi
6:20 AM39 °FClear.6 mph75%30.04 "Hg10 mi
5:50 AM39 °FClear.5 mph75%30.04 "Hg10 mi
5:20 AM41 °FClear.8 mph70%30.04 "Hg10 mi
4:20 AM41 °FClear.9 mph70%30.04 "Hg10 mi
3:50 AM41 °FClear.9 mph70%30.04 "Hg10 mi
3:20 AM41 °FClear.8 mph70%30.04 "Hg10 mi
Weather by CustomWeather, © 2016

See weather overviewHow to use our weather pages